Location: Bayside Keys
(38.4090°N, 75.0671°W)
Time: 05:51:29
(UTC+00:00)

Daily predictions for brighter satellites

Satellite Brightness Start Highest point End
(mag) Time Altitude Azimuth Time Altitude Azimuth Time Altitude Azimuth
RESURS DK-1 3.6 00:03:20 10° NNW 00:05:59 37° NW 00:05:59 37° NW
Okean 2 Rocket 3.7 00:03:05 10° SSW 00:07:23 53° W 00:08:01 48° NW
Nadezhda 4 Rocket 4.2 00:04:34 10° NNW 00:10:49 71° W 00:16:59 10° S
ATLAS 2AS CENTAUR R/B 4.4 00:08:27 10° N 00:10:49 16° NNE 00:10:49 16° NNE
SJ 16-02 2.4 00:11:18 10° SW 00:15:05 43° W 00:15:05 43° W
ISS -0.7 00:13:35 10° WNW 00:14:17 13° NW 00:14:17 13° NW
ATLAS 2A CENTAUR R/B 4.3 00:09:44 10° WSW 00:16:43 22° SSW 00:17:16 22° S
Cosmos 2195 Rocket 4.4 00:18:20 10° N 00:24:40 83° W 00:25:05 78° SSW
ATLAS 5 CENTAUR R/B 4.1 00:21:44 10° WNW 00:25:46 24° WSW 00:30:25 10° SSW
USA 281 4.4 01:07:16 34° NW 01:07:16 34° NW 01:10:51 10° NNW
CZ-3 R/B 4.4 07:34:45 41° S 07:36:21 41° S 07:46:49 10° ESE
Cosmos 2237 Rocket 4.1 08:43:08 22° NNE 08:43:08 22° NNE 08:45:00 10° NNE
Cosmos 2278 Rocket 3.6 08:43:28 31° SE 08:43:28 31° SE 08:46:24 10° SE
SJ 16-02 4.3 08:41:28 11° NE 08:42:37 12° ENE 08:44:07 10° E
Cosmos 1943 Rocket 3.8 08:46:29 26° SE 08:46:29 26° SE 08:48:49 10° SSE
USA 267 3.2 08:47:32 10° NE 08:53:32 77° NE 08:53:32 77° NE
ATLAS 3B R/B 4.1 08:55:04 10° S 09:01:44 39° ESE 09:08:46 10° NE
Meteor 2-16 Rocket 4.5 09:03:06 76° ENE 09:03:06 76° ENE 09:08:59 10° N
Atlas 2A Centaur Rocket 4.3 09:18:28 19° S 09:18:28 19° S 09:20:28 10° SE
Cosmos 2292 Rocket 4.2 09:20:13 62° N 09:20:13 62° N 09:25:18 10° N
USA 234 4.3 09:22:17 10° E 09:28:12 38° NNE 09:31:50 21° NNW
Cosmos 1864 Rocket 4.4 09:30:11 34° NNW 09:33:03 67° W 09:39:20 10° S
SL-16 R/B 4.4 09:31:38 10° SSW 09:32:31 14° SSW 09:32:31 14° SSW
Cosmos 1624 Rocket 3.9 09:34:26 24° SSW 09:37:36 87° ESE 09:42:47 10° NNE
Cosmos 2061 Rocket 4.1 09:33:43 10° N 09:39:55 76° E 09:46:07 10° S
Cosmos 2251 Rocket 3.5 09:38:22 33° NNW 09:40:50 87° ENE 09:46:11 10° SSE
SL-16 R/B 2.3 09:37:11 10° SSW 09:42:49 74° ESE 09:48:30 10° NNE
PAYLOAD A 4.3 09:41:19 10° N 09:45:53 49° NW 09:45:53 49° NW
Cosmos 1725 Rocket 4.0 09:41:14 10° NNW 09:47:23 56° W 09:53:29 10° SSW
Cosmos 2233 Rocket 3.9 09:43:08 10° N 09:49:26 81° W 09:55:38 10° S
BREEZE-M DEB (TANK) 2.2 09:54:02 53° ESE 09:54:02 53° ESE 09:56:37 10° ENE
CZ-2C R/B 4.1 09:56:35 10° N 09:58:22 19° NNW 09:58:22 19° NNW
Cosmos 2346 Rocket 4.3 09:54:54 10° S 10:01:02 79° W 10:07:09 10° N
SJ-11-01 4.1 10:00:29 10° N 10:05:09 69° WNW 10:09:48 10° SSW
Cosmos 1190 Rocket 4.2 10:15:29 18° NW 10:19:06 49° WSW 10:24:05 10° S
SKYMED 2 3.5 10:14:57 10° SSE 10:19:18 87° ENE 10:23:39 10° NNW
Aureole 3 4.3 10:13:32 10° SSW 10:19:29 54° W 10:24:33 10° N
SJ 16-02 1.2 10:18:05 18° NNW 10:21:08 59° WSW 10:25:19 10° S
Cosmos 676 Rocket 3.9 10:16:21 10° NNW 10:21:34 80° WSW 10:26:44 10° SSE
COSMO-SKYMED 1 2.9 10:18:02 10° SSE 10:22:05 63° ENE 10:26:10 10° N
Cosmos 2237 Rocket 3.9 10:24:59 15° NW 10:24:59 15° NW 10:27:18 10° NNW
Cosmos 2278 Rocket 3.7 10:25:23 16° WSW 10:25:23 16° WSW 10:27:47 10° SW
Cosmos 1943 Rocket 3.9 10:28:04 13° WSW 10:28:04 13° WSW 10:29:19 10° SW
Cosmos 2056 Rocket 4.2 10:21:55 11° SW 10:26:30 33° WNW 10:31:21 10° N
USA 229 DEB 3.4 10:25:30 10° SW 10:31:13 58° NW 10:37:34 10° NNE
USA 229 3.4 10:25:43 10° SW 10:31:25 58° NW 10:37:47 10° NNE
Cosmos 2297 4.2 10:26:06 10° NNW 10:31:42 61° ENE 10:37:14 10° SE
Cosmos 1025 Rocket 3.7 10:27:50 10° S 10:32:06 58° E 10:36:23 10° NNE
Cosmos 1954 Rocket 4.3 10:28:36 11° NNW 10:33:15 44° WSW 10:38:06 10° S
Cosmos 1943 3.6 10:27:57 10° S 10:33:30 68° ESE 10:39:04 10° NNE
USA 267 4.1 10:31:01 10° NNE 10:36:35 31° NNW 10:40:54 16° W
Cosmos 2369 Rocket 2.5 10:31:04 10° NNW 10:36:45 70° ENE 10:42:26 10° SSE
Cosmos 1674 Rocket 3.5 10:33:23 10° S 10:37:48 83° W 10:42:15 10° N
Lacrosse 5 rocket 3.6 10:40:19 10° NNE 10:41:13 11° NNE 10:42:06 10° NE
IRS-1D 3.9 10:37:26 10° N 10:41:58 38° WNW 10:46:28 10° SW
Cosmos 1484 Rocket 2.5 10:40:05 10° NNE 10:43:38 85° ESE 10:47:07 10° SSW
SWARM A 4.2 10:40:24 10° SSW 10:43:38 55° W 10:46:55 10° N
Cosmos 1400 Rocket 2.5 10:40:47 10° N 10:44:29 89° WSW 10:48:06 10° S
Helios 1A Rocket 2.8 10:45:48 10° S 10:48:59 40° W 10:52:12 10° NNW
Cosmos 2221 Rocket 3.7 10:44:41 10° S 10:49:12 83° E 10:53:45 10° N
Cosmos 1869 4.2 10:47:38 13° NW 10:49:53 22° W 10:52:38 10° SW
Lacrosse 4 Rocket 4.0 10:48:44 10° NNE 10:50:28 12° NE 10:52:11 10° ENE
Cosmos 371 Rocket 3.9 10:46:14 10° NW 10:50:38 36° WSW 10:55:00 10° SSW
ATLAS 3B R/B 3.2 10:45:11 10° WSW 10:52:21 48° NW 10:59:54 10° NNE
Cosmos 968 Rocket 3.5 10:48:06 10° NNW 10:53:23 86° WSW 10:58:37 10° SSE
Cosmos 1812 3.2 10:53:55 10° NW 10:56:16 23° W 10:58:37 10° SW
Cosmos 1741 Rocket 4.3 10:52:11 10° NNW 10:57:30 76° ENE 11:02:47 10° SSE
CENTAUR R/B 3.5 10:50:47 10° NNW 10:59:28 83° ENE 11:09:00 10° SE
Cosmos 2151 Rocket 3.6 10:55:58 10° NNW 11:00:24 62° W 11:04:46 10° S
Cosmos 1110 Rocket 4.4 10:56:58 10° SW 11:01:58 42° WNW 11:07:00 10° N
Cosmos 1378 Rocket 4.4 11:01:53 10° SW 11:05:29 26° WNW 11:09:07 10° NNW
Cosmos 1302 Rocket 4.2 11:00:26 10° SSW 11:05:34 80° ESE 11:10:46 10° NNE
Sich 1 Rocket 3.6 11:03:27 10° N 11:07:59 83° W 11:12:27 10° S
USA 234 3.4 11:04:23 10° SE 11:10:54 69° SW 11:17:27 10° NW
Thor Agena Rocket 3.7 11:07:17 10° NNE 11:12:30 83° ESE 11:17:36 10° SSW
Cosmos 1818 3.6 11:08:32 10° SSW 11:13:56 87° WNW 11:19:24 10° NNE
ATLAS CENTAUR Rocket 4.4 11:10:23 10° SSW 11:14:27 27° SSE 11:24:21 10° E
Tsikada Rocket 4.3 11:10:35 10° S 11:16:52 78° E 11:23:16 10° N
CZ-3 R/B 2.8 11:10:06 10° WSW 11:20:12 36° SSW 11:24:37 10° SE
